Time,TemperatureF,DewpointF,PressureIn,WindDirection,WindDirectionDegrees,WindSpeedMPH,WindSpeedGustMPH,Humidity,HourlyPrecipIn,Conditions,Clouds,dailyrainin,SoftwareType,DateUTC
2013-01-28 00:04:00,12.0,-2.0,30.40,SW,219,1.0,6.0,52,0.00,,,0.00,,2013-01-28 05:04:00,
2013-01-28 00:12:00,12.0,-2.0,30.40,SW,219,1.0,6.0,52,0.00,,,0.00,,2013-01-28 05:12:00,
2013-01-28 00:22:00,12.0,-2.0,30.40,NW,323,0.0,7.0,53,0.00,,,0.00,,2013-01-28 05:22:00,
2013-01-28 00:32:00,11.0,-2.0,30.40,WNW,291,0.0,1.0,54,0.00,,,0.00,,2013-01-28 05:32:00,
2013-01-28 00:42:00,11.0,-2.0,30.40,WNW,291,0.0,1.0,54,0.00,,,0.00,,2013-01-28 05:42:00,
2013-01-28 00:52:00,10.0,-3.0,30.39,WSW,254,0.0,1.0,56,0.00,,,0.00,,2013-01-28 05:52:00,
2013-01-28 01:02:00,9.0,-3.0,30.39,WSW,241,0.0,2.0,57,0.00,,,0.00,,2013-01-28 06:02:00,
2013-01-28 01:11:00,9.0,-3.0,30.39,WSW,241,0.0,2.0,57,0.00,,,0.00,,2013-01-28 06:11:00,
2013-01-28 01:22:00,9.0,-2.0,30.40,WSW,256,1.0,3.0,59,0.00,,,0.00,,2013-01-28 06:22:00,
2013-01-28 01:32:00,8.0,-3.0,30.40,WSW,257,1.0,2.0,61,0.00,,,0.00,,2013-01-28 06:32:00,
2013-01-28 01:42:00,8.0,-3.0,30.40,WSW,257,1.0,2.0,61,0.00,,,0.00,,2013-01-28 06:42:00,
2013-01-28 01:52:00,8.0,-2.0,30.41,West,260,1.0,2.0,63,0.00,,,0.00,,2013-01-28 06:52:00,
2013-01-28 02:02:00,8.0,-2.0,30.41,WNW,285,0.0,2.0,62,0.00,,,0.00,,2013-01-28 07:02:00,
2013-01-28 02:11:00,8.0,-2.0,30.41,WNW,285,0.0,2.0,62,0.00,,,0.00,,2013-01-28 07:11:00,
2013-01-28 02:22:00,7.0,-3.0,30.54,WSW,241,0.0,2.0,63,0.00,,,0.00,,2013-01-28 07:22:00,
2013-01-28 02:32:00,7.0,-3.0,30.40,WSW,248,0.0,1.0,63,0.00,,,0.00,,2013-01-28 07:32:00,
2013-01-28 02:42:00,7.0,-3.0,30.40,WSW,248,0.0,1.0,63,0.00,,,0.00,,2013-01-28 07:42:00,
2013-01-28 02:52:00,7.0,-3.0,30.40,SW,217,0.0,1.0,63,0.00,,,0.00,,2013-01-28 07:52:00,
2013-01-28 03:01:00,7.0,-3.0,30.39,WSW,248,0.0,0.0,63,0.00,,,0.00,,2013-01-28 08:01:00,
2013-01-28 03:11:00,7.0,-3.0,30.39,WSW,248,0.0,0.0,63,0.00,,,0.00,,2013-01-28 08:11:00,
2013-01-28 03:21:00,9.0,-1.0,30.38,WSW,248,1.0,3.0,62,0.00,,,0.00,,2013-01-28 08:21:00,
2013-01-28 03:32:00,9.0,-2.0,30.38,NW,305,0.0,1.0,60,0.00,,,0.00,,2013-01-28 08:32:00,
2013-01-28 03:42:00,9.0,-2.0,30.38,NW,305,0.0,1.0,60,0.00,,,0.00,,2013-01-28 08:42:00,
2013-01-28 03:52:00,9.0,-1.0,30.38,WNW,295,0.0,2.0,62,0.00,,,0.00,,2013-01-28 08:52:00,
2013-01-28 04:02:00,8.0,-2.0,30.37,NW,315,0.0,1.0,63,0.00,,,0.00,,2013-01-28 09:02:00,
2013-01-28 04:12:00,8.0,-2.0,30.37,NW,315,0.0,1.0,63,0.00,,,0.00,,2013-01-28 09:12:00,
2013-01-28 04:22:00,7.0,-3.0,30.37,NW,315,0.0,1.0,64,0.00,,,0.00,,2013-01-28 09:22:00,
2013-01-28 04:32:00,7.0,-2.0,30.37,NW,315,0.0,1.0,66,0.00,,,0.00,,2013-01-28 09:32:00,
2013-01-28 04:42:00,7.0,-2.0,30.37,NW,315,0.0,1.0,66,0.00,,,0.00,,2013-01-28 09:42:00,
2013-01-28 04:52:00,7.0,-2.0,30.50,West,261,0.0,2.0,65,0.00,,,0.00,,2013-01-28 09:52:00,
2013-01-28 05:02:00,7.0,-3.0,30.36,WSW,251,0.0,2.0,63,0.00,,,0.00,,2013-01-28 10:02:00,
2013-01-28 05:11:00,7.0,-3.0,30.36,WSW,251,0.0,2.0,63,0.00,,,0.00,,2013-01-28 10:11:00,
2013-01-28 05:21:00,7.0,-3.0,30.36,WSW,253,0.0,1.0,63,0.00,,,0.00,,2013-01-28 10:21:00,
2013-01-28 05:32:00,8.0,-2.0,30.35,SW,235,1.0,2.0,62,0.00,,,0.00,,2013-01-28 10:32:00,
2013-01-28 05:42:00,8.0,-2.0,30.35,SW,235,1.0,2.0,62,0.00,,,0.00,,2013-01-28 10:42:00,
2013-01-28 05:52:00,8.0,-3.0,30.35,NNW,334,0.0,1.0,61,0.00,,,0.00,,2013-01-28 10:52:00,
2013-01-28 06:02:00,7.0,-3.0,30.36,West,274,0.0,1.0,63,0.00,,,0.00,,2013-01-28 11:02:00,
2013-01-28 06:11:00,7.0,-3.0,30.36,West,274,0.0,1.0,63,0.00,,,0.00,,2013-01-28 11:11:00,
2013-01-28 06:22:00,8.0,-2.0,30.35,WSW,251,0.0,2.0,63,0.00,,,0.00,,2013-01-28 11:22:00,
2013-01-28 06:32:00,7.0,-2.0,30.35,North,3,0.0,1.0,65,0.00,,,0.00,,2013-01-28 11:32:00,
2013-01-28 06:42:00,7.0,-2.0,30.35,North,3,0.0,1.0,65,0.00,,,0.00,,2013-01-28 11:42:00,
2013-01-28 06:52:00,7.0,-2.0,30.35,WSW,257,0.0,1.0,65,0.00,,,0.00,,2013-01-28 11:52:00,
2013-01-28 07:03:00,8.0,-2.0,30.35,WSW,238,0.0,1.0,62,0.00,,,0.00,,2013-01-28 12:03:00,
2013-01-28 07:12:00,8.0,-2.0,30.35,WSW,238,0.0,1.0,62,0.00,,,0.00,,2013-01-28 12:12:00,
2013-01-28 07:23:00,8.0,-3.0,30.49,WSW,245,0.0,3.0,59,0.00,,,0.00,,2013-01-28 12:23:00,
2013-01-28 07:33:00,10.0,-1.0,30.35,WSW,245,0.0,1.0,59,0.00,,,0.00,,2013-01-28 12:33:00,
2013-01-28 07:42:00,10.0,-1.0,30.35,WSW,245,0.0,1.0,59,0.00,,,0.00,,2013-01-28 12:42:00,
2013-01-28 07:53:00,10.0,-2.0,30.35,WNW,284,0.0,1.0,58,0.00,,,0.00,,2013-01-28 12:53:00,
2013-01-28 08:03:00,10.0,0.0,30.35,WNW,298,0.0,2.0,62,0.00,,,0.00,,2013-01-28 13:03:00,
2013-01-28 08:12:00,10.0,0.0,30.35,WNW,298,0.0,2.0,62,0.00,,,0.00,,2013-01-28 13:12:00,
2013-01-28 08:23:00,11.0,0.0,30.35,WNW,300,0.0,2.0,60,0.00,,,0.00,,2013-01-28 13:23:00,
2013-01-28 08:33:00,11.0,0.0,30.35,NNE,12,0.0,0.0,60,0.00,,,0.00,,2013-01-28 13:33:00,
2013-01-28 08:42:00,11.0,0.0,30.35,NNE,12,0.0,0.0,60,0.00,,,0.00,,2013-01-28 13:42:00,
2013-01-28 08:53:00,11.0,0.0,30.35,NW,317,0.0,1.0,59,0.00,,,0.00,,2013-01-28 13:53:00,
2013-01-28 09:03:00,12.0,0.0,30.34,NW,310,0.0,1.0,58,0.00,,,0.00,,2013-01-28 14:03:00,
2013-01-28 09:12:00,12.0,0.0,30.34,NW,310,0.0,1.0,58,0.00,,,0.00,,2013-01-28 14:12:00,
2013-01-28 09:23:00,12.0,0.0,30.34,West,279,0.0,2.0,57,0.00,,,0.00,,2013-01-28 14:23:00,
2013-01-28 09:33:00,12.0,2.0,30.47,NW,313,0.0,2.0,63,0.00,,,0.00,,2013-01-28 14:33:00,
2013-01-28 09:43:00,12.0,2.0,30.47,NW,313,0.0,2.0,63,0.00,,,0.00,,2013-01-28 14:43:00,
2013-01-28 09:53:00,13.0,3.0,30.33,North,1,0.0,1.0,63,0.00,,,0.00,,2013-01-28 14:53:00,
2013-01-28 10:03:00,14.0,3.0,30.33,NNW,333,0.0,1.0,61,0.00,,,0.00,,2013-01-28 15:03:00,
2013-01-28 10:13:00,14.0,3.0,30.33,NNW,333,0.0,1.0,61,0.00,,,0.00,,2013-01-28 15:13:00,
2013-01-28 10:23:00,15.0,4.0,30.32,NE,39,0.0,2.0,61,0.00,,,0.00,,2013-01-28 15:23:00,
2013-01-28 10:33:00,16.0,4.0,30.31,NNE,14,0.0,1.0,59,0.00,,,0.00,,2013-01-28 15:33:00,
2013-01-28 10:43:00,16.0,4.0,30.31,NNE,14,0.0,1.0,59,0.00,,,0.00,,2013-01-28 15:43:00,
2013-01-28 10:53:00,17.0,5.0,30.30,NNE,12,0.0,0.0,59,0.00,,,0.00,,2013-01-28 15:53:00,
2013-01-28 11:04:00,18.0,6.0,30.30,NNW,328,0.0,1.0,58,0.00,,,0.00,,2013-01-28 16:04:00,
2013-01-28 11:13:00,18.0,6.0,30.30,NNW,328,0.0,1.0,58,0.00,,,0.00,,2013-01-28 16:13:00,
2013-01-28 11:22:00,18.0,6.0,30.30,NE,40,0.0,1.0,59,0.00,,,0.00,,2013-01-28 16:22:00,
2013-01-28 11:33:00,19.0,7.0,30.42,North,9,0.0,1.0,60,0.00,,,0.00,,2013-01-28 16:33:00,
2013-01-28 11:43:00,19.0,7.0,30.42,North,9,0.0,1.0,60,0.00,,,0.00,,2013-01-28 16:43:00,
2013-01-28 11:53:00,19.0,9.0,30.27,North,10,0.0,1.0,64,0.00,,,0.00,,2013-01-28 16:53:00,
2013-01-28 12:02:00,18.0,11.0,30.25,NNE,20,1.0,2.0,75,0.00,,,0.00,,2013-01-28 17:02:00,
2013-01-28 12:12:00,18.0,11.0,30.25,NNE,20,1.0,2.0,75,0.00,,,0.00,,2013-01-28 17:12:00,
2013-01-28 12:23:00,17.0,12.0,30.26,WNW,302,0.0,1.0,79,0.00,,,0.00,,2013-01-28 17:23:00,
2013-01-28 12:33:00,18.0,14.0,30.24,West,275,0.0,1.0,84,0.00,,,0.00,,2013-01-28 17:33:00,
2013-01-28 12:42:00,18.0,14.0,30.24,West,275,0.0,1.0,84,0.00,,,0.00,,2013-01-28 17:42:00,
2013-01-28 12:53:00,18.0,15.0,30.22,NNE,19,1.0,2.0,87,0.00,,,0.00,,2013-01-28 17:53:00,
2013-01-28 13:03:00,18.0,15.0,30.20,South,183,1.0,3.0,89,0.00,,,0.00,,2013-01-28 18:03:00,
2013-01-28 13:12:00,18.0,15.0,30.20,South,183,1.0,3.0,89,0.00,,,0.00,,2013-01-28 18:12:00,
2013-01-28 13:23:00,20.0,17.0,30.18,WSW,249,1.0,3.0,88,0.00,,,0.00,,2013-01-28 18:23:00,
2013-01-28 13:33:00,21.0,18.0,30.16,NNE,28,0.0,4.0,88,0.00,,,0.00,,2013-01-28 18:33:00,
2013-01-28 13:42:00,21.0,18.0,30.16,NNE,28,0.0,4.0,88,0.00,,,0.00,,2013-01-28 18:42:00,
2013-01-28 13:53:00,20.0,17.0,30.15,NW,313,1.0,8.0,88,0.00,,,0.00,,2013-01-28 18:53:00,
2013-01-28 14:02:00,20.0,17.0,30.28,NNW,332,1.0,3.0,89,0.00,,,0.00,,2013-01-28 19:02:00,
2013-01-28 14:12:00,20.0,17.0,30.28,NNW,332,1.0,3.0,89,0.00,,,0.00,,2013-01-28 19:12:00,
2013-01-28 14:22:00,20.0,18.0,30.14,NW,306,0.0,3.0,90,0.00,,,0.00,,2013-01-28 19:22:00,
2013-01-28 14:33:00,20.0,18.0,30.14,East,95,1.0,4.0,90,0.00,,,0.00,,2013-01-28 19:33:00,
2013-01-28 14:42:00,20.0,18.0,30.14,East,95,1.0,4.0,90,0.00,,,0.00,,2013-01-28 19:42:00,
2013-01-28 14:53:00,20.0,18.0,30.13,NNE,22,0.0,2.0,90,0.00,,,0.00,,2013-01-28 19:53:00,
2013-01-28 15:03:00,20.0,18.0,30.13,WNW,295,1.0,2.0,90,0.00,,,0.00,,2013-01-28 20:03:00,
2013-01-28 15:12:00,20.0,18.0,30.13,WNW,295,1.0,2.0,90,0.00,,,0.00,,2013-01-28 20:12:00,
2013-01-28 15:22:00,20.0,18.0,30.13,East,92,1.0,2.0,90,0.00,,,0.00,,2013-01-28 20:22:00,
2013-01-28 15:33:00,20.0,18.0,30.11,NNE,25,0.0,3.0,90,0.00,,,0.00,,2013-01-28 20:33:00,
2013-01-28 15:42:00,20.0,18.0,30.11,NNE,25,0.0,3.0,90,0.00,,,0.00,,2013-01-28 20:42:00,
2013-01-28 15:53:00,20.0,18.0,30.11,West,260,1.0,7.0,91,0.00,,,0.00,,2013-01-28 20:53:00,
2013-01-28 16:03:00,19.0,17.0,30.11,West,280,0.0,4.0,91,0.00,,,0.00,,2013-01-28 21:03:00,
2013-01-28 16:12:00,19.0,17.0,30.11,West,280,0.0,4.0,91,0.00,,,0.00,,2013-01-28 21:12:00,
2013-01-28 16:23:00,19.0,17.0,30.11,WNW,298,1.0,3.0,91,0.00,,,0.00,,2013-01-28 21:23:00,
2013-01-28 16:33:00,19.0,17.0,30.09,SSW,211,0.0,3.0,91,0.00,,,0.00,,2013-01-28 21:33:00,
2013-01-28 16:43:00,19.0,17.0,30.09,SSW,211,0.0,3.0,91,0.00,,,0.00,,2013-01-28 21:43:00,
2013-01-28 16:53:00,18.0,16.0,30.09,West,273,0.0,3.0,92,0.00,,,0.00,,2013-01-28 21:53:00,
2013-01-28 17:02:00,18.0,16.0,30.09,WSW,246,1.0,2.0,92,0.00,,,0.00,,2013-01-28 22:02:00,
2013-01-28 17:12:00,18.0,16.0,30.09,WSW,246,1.0,2.0,92,0.00,,,0.00,,2013-01-28 22:12:00,
2013-01-28 17:23:00,18.0,16.0,30.07,West,279,1.0,3.0,92,0.00,,,0.00,,2013-01-28 22:23:00,
2013-01-28 17:33:00,18.0,16.0,30.08,ESE,119,1.0,4.0,92,0.00,,,0.00,,2013-01-28 22:33:00,
2013-01-28 17:42:00,18.0,16.0,30.08,ESE,119,1.0,4.0,92,0.00,,,0.00,,2013-01-28 22:42:00,
2013-01-28 17:52:00,18.0,16.0,30.06,East,92,1.0,8.0,92,0.00,,,0.00,,2013-01-28 22:52:00,
2013-01-28 18:02:00,18.0,16.0,30.07,ENE,57,2.0,8.0,93,0.00,,,0.00,,2013-01-28 23:02:00,
2013-01-28 18:12:00,18.0,16.0,30.07,ENE,57,2.0,8.0,93,0.00,,,0.00,,2013-01-28 23:12:00,
2013-01-28 18:22:00,18.0,16.0,30.06,ESE,105,1.0,3.0,93,0.00,,,0.00,,2013-01-28 23:22:00,
2013-01-28 18:32:00,18.0,16.0,30.06,East,92,1.0,3.0,93,0.00,,,0.00,,2013-01-28 23:32:00,
2013-01-28 18:42:00,18.0,16.0,30.06,East,92,1.0,3.0,93,0.00,,,0.00,,2013-01-28 23:42:00,
2013-01-28 18:53:00,18.0,16.0,30.06,West,269,0.0,4.0,93,0.00,,,0.00,,2013-01-28 23:53:00,
2013-01-28 19:02:00,18.0,16.0,30.06,West,263,1.0,3.0,93,0.00,,,0.00,,2013-01-29 00:02:00,
2013-01-28 19:12:00,18.0,16.0,30.06,West,263,1.0,3.0,93,0.00,,,0.00,,2013-01-29 00:12:00,
2013-01-28 19:22:00,18.0,16.0,30.06,NW,308,1.0,4.0,93,0.00,,,0.00,,2013-01-29 00:22:00,
2013-01-28 19:33:00,18.0,16.0,30.05,WSW,257,0.0,3.0,93,0.00,,,0.00,,2013-01-29 00:33:00,
2013-01-28 19:42:00,18.0,16.0,30.05,WSW,257,0.0,3.0,93,0.00,,,0.00,,2013-01-29 00:42:00,
2013-01-28 19:52:00,18.0,16.0,30.03,West,274,1.0,4.0,93,0.00,,,0.00,,2013-01-29 00:52:00,
2013-01-28 20:02:00,18.0,16.0,30.03,WNW,284,1.0,4.0,93,0.00,,,0.00,,2013-01-29 01:02:00,
2013-01-28 20:12:00,18.0,16.0,30.03,WNW,284,1.0,4.0,93,0.00,,,0.00,,2013-01-29 01:12:00,
2013-01-28 20:23:00,18.0,16.0,30.03,NNE,23,0.0,3.0,93,0.00,,,0.00,,2013-01-29 01:23:00,
2013-01-28 20:32:00,18.0,16.0,30.03,NE,38,1.0,4.0,93,0.00,,,0.00,,2013-01-29 01:32:00,
2013-01-28 20:42:00,18.0,16.0,30.03,NE,38,1.0,4.0,93,0.00,,,0.00,,2013-01-29 01:42:00,
2013-01-28 20:53:00,18.0,16.0,30.02,ENE,74,1.0,2.0,93,0.00,,,0.00,,2013-01-29 01:53:00,
2013-01-28 21:02:00,18.0,16.0,30.02,West,269,0.0,4.0,93,0.00,,,0.00,,2013-01-29 02:02:00,
2013-01-28 21:12:00,18.0,16.0,30.02,West,269,0.0,4.0,93,0.00,,,0.00,,2013-01-29 02:12:00,
2013-01-28 21:22:00,18.0,17.0,30.02,West,265,0.0,3.0,94,0.00,,,0.00,,2013-01-29 02:22:00,
2013-01-28 21:33:00,18.0,17.0,30.01,SW,235,1.0,4.0,94,0.00,,,0.00,,2013-01-29 02:33:00,
2013-01-28 21:42:00,18.0,17.0,30.01,SW,235,1.0,4.0,94,0.00,,,0.00,,2013-01-29 02:42:00,
2013-01-28 21:53:00,18.0,17.0,30.00,NNE,28,0.0,4.0,94,0.00,,,0.00,,2013-01-29 02:53:00,
2013-01-28 22:03:00,18.0,17.0,30.00,North,358,0.0,4.0,94,0.00,,,0.00,,2013-01-29 03:03:00,
2013-01-28 22:12:00,18.0,17.0,30.00,North,358,0.0,4.0,94,0.00,,,0.00,,2013-01-29 03:12:00,
2013-01-28 22:22:00,18.0,17.0,30.00,North,351,1.0,5.0,94,0.00,,,0.00,,2013-01-29 03:22:00,
2013-01-28 22:32:00,18.0,17.0,30.01,WSW,253,0.0,3.0,94,0.00,,,0.00,,2013-01-29 03:32:00,
2013-01-28 22:42:00,18.0,17.0,30.01,WSW,253,0.0,3.0,94,0.00,,,0.00,,2013-01-29 03:42:00,
2013-01-28 22:53:00,18.0,16.0,29.99,NW,316,0.0,2.0,93,0.00,,,0.00,,2013-01-29 03:53:00,
2013-01-28 23:02:00,18.0,16.0,29.99,WSW,258,1.0,6.0,93,0.00,,,0.00,,2013-01-29 04:02:00,
2013-01-28 23:12:00,18.0,16.0,29.99,WSW,258,1.0,6.0,93,0.00,,,0.00,,2013-01-29 04:12:00,
2013-01-28 23:22:00,18.0,16.0,29.99,WNW,282,0.0,2.0,93,0.00,,,0.00,,2013-01-29 04:22:00,
2013-01-28 23:32:00,18.0,16.0,29.99,SW,227,0.0,2.0,93,0.00,,,0.00,,2013-01-29 04:32:00,
2013-01-28 23:42:00,18.0,16.0,29.99,SW,227,0.0,2.0,93,0.00,,,0.00,,2013-01-29 04:42:00,
2013-01-28 23:52:00,18.0,16.0,30.13,WNW,291,0.0,2.0,93,0.00,,,0.00,,2013-01-29 04:52:00,